Location: Zagreb
(45.8000°N, 16.0000°E)
Time: 02:19:13
(UTC+02:00)

Transit 2A Rocket - Pass Details

Date: 26 January 2022
Orbit: 592 x 909 km, 66.7° (Epoch: 26 May)

Event Time Altitude Azimuth Distance (km) Brightness Sun altitude
Rises 18:34:09 0° 210° (SSW) 3,472 9.0 -17.6°
Reaches altitude 10° 18:36:36 10° 211° (SSW) 2,560 8.2 -18.0°
Maximum altitude 18:42:38 89° 125° (SE) 916 5.3 -19.0°
Enters shadow 18:47:03 20° 33° (NNE) 1,981 6.8 -19.8°
Drops below altitude 10° 18:48:44 10° 33° (NNE) 2,589 - -20.1°
Sets 18:51:14 0° 34° (NE) 3,514 - -20.5°
